Theta_e
333 334 337 344 349 357 356 355 353 352 352 350 349 351 348 344 341 337 334 333 331 333 332 329 330 329 328 327 326 324 323 322 317 316 318 318 317 312 309 312 313 310 311
327 329 332 336 340 340 346 350 353 352 352 350 351 349 348 345 342 337 334 334 333 331 331 329 329 331 329 326 324 323 322 323 318 313 313 314 313 315 310 312 313 313 312
325 323 325 333 334 336 342 347 352 349 351 350 349 348 346 345 342 339 336 335 334 332 331 329 329 328 325 325 323 323 324 320 321 314 311 313 314 312 313 312 312 313 314
324 323 325 326 330 335 339 337 345 350 350 350 349 347 347 346 344 342 338 336 335 333 332 329 329 327 324 325 322 321 318 317 317 315 312 311 310 312 311 308 308 311 310
322 322 324 328 327 329 334 336 336 341 347 348 348 346 347 345 345 343 340 336 335 332 330 329 328 327 326 325 321 319 318 315 313 312 309 308 307 308 306 310 307 308 309
320 321 323 324 326 327 329 331 333 334 338 345 344 345 343 344 329 322 335 336 334 330 327 327 327 325 323 320 318 318 319 313 310 309 308 305 305 306 306 307 307 305 303
319 320 320 321 322 323 327 327 329 331 336 336 341 343 342 342 321 316 320 337 334 330 328 327 325 326 322 319 314 313 312 312 313 310 305 305 305 308 307 308 307 307 306
318 319 320 320 320 322 325 326 326 329 331 334 335 338 340 341 320 313 316 337 334 331 329 328 326 323 320 317 313 310 308 309 310 310 308 308 309 313 312 312 311 310 309
319 320 319 320 320 322 322 324 325 326 327 330 333 334 336 339 317 311 316 335 333 331 329 328 325 319 313 307 311 307 306 306 306 306 305 304 306 310 314 312 309 306 305
318 318 318 319 321 322 324 324 325 327 326 328 327 328 326 335 319 309 315 334 331 330 328 326 315 316 304 305 310 306 304 303 304 304 305 304 306 307 308 314 309 304 305
318 318 317 316 316 321 324 325 324 323 324 325 325 325 329 332 334 306 306 332 330 328 325 324 319 306 303 304 306 306 304 304 304 304 304 305 308 307 308 310 311 311 307
318 318 317 315 315 317 319 320 322 321 322 322 322 322 327 331 319 307 304 308 320 327 325 323 316 302 302 301 303 301 299 302 303 303 303 304 306 307 307 308 309 313 314
318 317 318 318 316 316 318 318 319 322 321 320 319 319 320 327 331 307 303 303 308 323 325 317 308 300 301 301 300 299 300 302 301 300 301 303 306 307 306 307 310 312 313
317 317 317 317 317 316 318 319 320 321 320 319 316 315 316 319 320 315 309 308 306 313 310 306 303 301 302 303 300 301 302 301 300 299 301 305 305 304 306 306 307 309 307
316 316 318 317 316 316 318 319 320 321 319 319 316 313 312 313 318 309 309 313 316 312 303 301 300 300 299 299 300 301 300 301 303 303 302 303 303 304 306 308 308 307 305
315 316 317 316 316 316 316 317 310 303 301 298 297 299 307 303 301 300 300 302 301 298 302 299 297 298 298 299 300 300 301 303 303 302 303 303 303 304 305 307 307 306 305
315 317 317 315 317 316 316 316 314 315 300 297 295 294 294 295 295 297 298 298 297 299 303 300 298 299 299 300 300 300 301 303 304 303 305 305 304 305 303 306 305 306 306
315 308 316 317 317 316 315 313 314 312 312 313 301 297 295 293 294 295 296 299 298 301 306 299 299 299 300 300 301 302 302 303 304 304 305 304 304 305 305 304 304 304 304
311 315 314 314 314 312 313 311 311 311 309 309 307 302 295 292 294 294 296 306 302 303 302 300 300 300 300 301 302 302 302 302 303 303 305 304 306 305 304 305 304 296 299
310 304 302 308 307 307 306 306 306 306 305 304 303 301 298 295 296 297 301 304 303 304 302 301 300 300 301 302 302 301 301 300 301 303 305 306 306 306 305 305 305 303 303
307 307 296 307 305 304 303 302 303 302 301 300 298 296 287 296 297 298 302 302 303 303 302 300 299 300 302 302 302 300 300 300 302 304 305 306 307 306 306 305 305 306 304
307 306 306 306 305 303 302 301 299 298 298 297 297 296 288 299 299 302 303 303 302 303 301 300 300 301 302 302 301 300 300 301 303 304 306 306 307 306 307 306 306 305 305
307 306 304 305 305 299 302 301 299 298 298 298 299 299 300 301 302 302 302 302 301 301 301 301 301 300 302 302 301 301 301 304 303 305 306 306 306 306 306 305 306 305 305
309 306 304 303 303 302 302 302 301 296 297 298 298 299 299 300 301 302 302 303 303 302 302 302 302 302 303 302 303 305 306 307 306 308 308 307 306 301 306 306 306 306 306
311 308 304 303 302 302 301 301 301 301 300 299 299 299 300 301 301 302 303 304 303 303 302 303 303 303 304 304 305 306 301 290 304 300 309 309 308 308 307 306 306 306 306
308 307 306 305 302 302 301 300 301 301 301 300 300 300 300 301 302 302 303 304 304 304 304 305 305 303 304 306 303 294 288 288 296 292 307 310 309 308 306 306 308 306 306
Wind_Speed
10 11 13 10 13 6 9 12 14 15 14 12 16 20 18 18 18 18 18 17 19 15 15 15 15 11 6 5 5 4 4 4 4 3 4 8 6 9 6 6 9 6 7
10 11 11 12 11 11 9 9 9 12 14 17 15 18 20 20 20 20 20 18 20 20 18 17 16 11 11 7 7 7 6 5 5 11 7 7 5 8 7 7 5 8 8
7 11 13 11 11 10 10 13 10 12 14 14 17 17 22 21 20 21 20 20 19 19 19 19 17 17 15 10 10 9 5 5 6 8 9 8 5 5 5 4 4 5 5
11 11 8 11 14 12 10 11 15 12 13 14 16 18 20 20 22 20 21 20 19 18 19 19 18 20 19 14 12 11 9 7 6 8 11 10 9 7 5 5 4 4 5
13 12 11 8 9 12 13 9 11 14 14 13 13 15 17 20 17 21 20 20 19 17 18 19 17 20 21 15 12 13 12 10 9 8 9 10 9 9 10 7 7 7 6
14 14 13 12 10 8 11 12 12 13 14 14 14 13 16 14 19 21 20 18 20 19 19 18 17 20 19 18 15 17 16 15 13 9 9 11 10 10 7 6 5 4 4
15 15 14 15 12 11 9 10 14 16 14 13 15 15 15 17 19 21 23 18 19 19 20 18 17 15 19 15 11 15 12 11 13 12 15 13 12 13 9 7 5 4 2
16 17 16 15 15 12 8 9 12 14 15 14 13 15 14 14 18 20 24 22 18 21 21 20 19 18 18 18 16 16 15 13 13 9 13 13 11 8 7 5 5 4 1
20 20 17 15 15 12 11 10 11 12 15 15 13 14 16 17 15 20 20 20 19 22 20 19 20 18 22 25 20 18 15 9 10 14 15 10 17 16 9 5 5 5 4
17 17 18 20 18 12 10 11 11 11 13 12 14 14 17 18 14 19 24 17 17 14 17 19 25 27 34 35 22 19 18 13 14 11 9 9 10 11 12 6 6 6 6
16 16 17 16 17 19 10 7 9 12 13 13 13 16 16 16 14 17 22 16 14 16 16 16 15 23 31 32 30 21 22 17 16 12 8 7 6 8 7 5 4 2 2
16 17 16 16 13 12 15 13 12 13 13 12 12 13 12 13 15 14 19 21 13 16 19 15 16 31 33 29 23 24 24 20 13 12 11 10 9 8 7 5 5 3 3
17 17 16 16 14 13 13 14 12 11 9 10 9 11 12 11 10 13 19 22 20 14 13 18 26 28 30 21 14 22 28 15 13 14 13 11 10 9 8 6 6 5 3
17 17 15 14 14 14 11 11 9 9 9 8 8 10 10 11 6 4 8 9 9 7 11 12 16 22 30 21 18 16 13 13 14 14 12 9 8 8 9 10 7 6 4
15 16 15 12 12 13 12 11 9 10 10 9 8 7 10 10 7 9 9 8 9 10 17 11 10 13 13 13 16 16 11 12 11 12 12 10 10 10 9 10 8 7 6
16 12 11 10 11 11 10 11 13 15 11 12 12 10 9 13 18 14 17 17 15 21 11 13 15 16 17 17 16 17 13 15 12 12 12 11 11 10 10 9 8 8 8
15 14 11 11 11 11 12 11 13 9 12 11 12 12 13 18 20 14 17 11 18 21 10 12 16 17 17 17 17 15 15 13 14 14 8 9 11 10 11 9 8 6 4
17 14 10 10 10 10 10 8 7 7 8 8 5 7 9 15 17 12 12 13 8 11 10 12 13 14 15 15 14 16 13 10 9 11 8 12 13 10 11 9 8 4 4
14 10 11 11 11 12 10 8 8 9 8 7 7 7 3 7 8 10 19 9 12 13 9 11 12 13 14 14 16 15 15 14 12 8 9 15 10 10 10 9 9 8 6
11 13 10 10 10 10 10 9 9 8 8 6 6 6 4 4 2 2 6 5 9 11 11 12 12 13 14 16 16 17 17 17 17 13 11 8 10 9 10 8 10 9 5
9 9 9 9 9 9 9 10 10 8 8 7 6 4 6 4 2 3 3 4 6 7 9 11 12 12 12 14 15 16 18 16 14 12 11 7 9 8 9 8 6 7 7
8 9 10 9 8 9 8 8 10 9 9 8 6 6 7 2 2 1 4 6 6 7 9 11 10 10 12 12 16 17 18 16 15 12 7 9 8 9 5 9 7 6 8
9 10 9 9 8 9 8 8 8 9 9 9 9 8 8 7 5 5 7 8 10 9 9 10 10 10 11 11 14 16 15 12 14 11 8 10 9 8 5 4 7 6 6
9 10 10 9 9 9 8 8 8 9 9 9 9 8 7 6 6 8 8 10 11 10 9 9 10 15 14 14 13 11 10 13 14 11 10 9 8 8 7 5 4 5 4
9 9 10 10 10 9 9 9 9 7 8 8 8 8 8 6 6 6 7 7 9 10 11 10 11 15 15 19 15 14 16 9 16 11 6 6 8 10 7 5 5 5 5
11 11 9 8 8 9 9 8 8 8 8 7 7 7 7 8 7 6 6 6 6 9 11 6 15 18 15 12 14 5 7 8 8 9 8 5 5 5 7 5 7 5 5
Wind_Direction
13 346 339 341 346 274 231 235 233 241 248 247 231 209 210 199 200 199 206 201 203 196 195 199 200 208 217 184 168 173 188 152 136 69 147 145 136 139 151 159 154 180 175
4 342 332 337 342 350 300 251 248 245 235 240 241 213 207 205 202 206 207 202 199 199 193 193 195 191 209 188 175 180 174 158 119 146 136 138 141 137 153 167 197 212 170
344 332 331 324 323 326 328 311 261 252 255 240 237 231 218 216 211 210 203 205 200 200 196 195 189 182 206 195 183 175 145 135 134 157 147 151 148 153 163 162 195 248 196
328 318 308 312 317 313 317 326 320 282 265 255 245 246 227 218 216 212 204 205 206 201 196 196 190 187 197 190 180 166 152 155 146 148 150 157 161 166 166 174 215 210 232
320 310 302 287 296 310 308 315 312 315 293 282 265 254 241 225 221 212 205 202 204 200 199 194 194 189 197 193 176 169 163 159 160 149 162 158 166 167 189 186 195 199 229
307 302 304 304 294 292 304 313 311 304 309 294 279 258 247 231 215 208 202 198 201 195 197 194 193 189 183 184 166 167 167 169 165 157 167 167 165 163 182 199 189 149 183
306 301 305 298 298 297 295 311 313 309 298 300 289 277 259 242 224 208 198 198 197 193 196 191 193 192 176 170 139 129 132 159 176 166 169 167 166 166 176 191 179 163 159
297 298 291 296 294 289 293 299 304 304 304 301 296 288 273 264 233 216 195 199 202 197 194 190 192 183 171 168 156 154 155 160 167 165 158 155 154 159 145 153 158 142 56
311 306 295 292 291 297 290 284 288 293 297 295 296 300 288 269 243 218 200 201 207 200 188 185 186 171 174 164 161 165 164 154 120 115 109 99 127 115 148 153 147 134 218
301 306 312 319 299 287 299 284 276 283 288 293 299 293 285 277 257 215 202 209 193 197 184 184 181 175 170 165 168 166 165 166 151 124 110 97 128 148 150 153 158 194 219
298 295 299 302 301 303 294 310 300 290 288 289 293 293 284 275 257 206 214 206 196 188 184 187 183 169 169 174 166 169 171 160 149 135 132 127 152 171 152 143 185 218 320
296 293 290 292 291 295 303 305 299 291 281 284 293 294 289 275 248 211 215 219 220 197 191 181 177 164 172 171 163 158 144 160 149 149 154 167 181 171 165 152 176 239 42
295 296 295 291 286 284 285 284 285 279 273 275 291 296 301 286 258 213 209 217 221 217 198 183 166 169 166 148 135 158 154 163 154 160 174 181 183 160 162 160 177 196 155
296 298 294 289 282 279 273 272 280 272 269 268 281 288 294 307 258 223 222 231 233 226 109 113 147 156 160 151 136 165 175 163 161 163 174 174 169 173 179 176 170 166 146
308 297 291 287 286 284 280 273 270 269 255 256 266 276 289 292 283 233 197 203 191 161 124 111 132 149 158 161 151 172 179 157 162 171 173 165 175 192 180 171 160 168 185
312 307 301 298 294 291 290 293 269 247 254 235 245 246 276 269 281 238 217 212 168 144 141 150 155 164 164 164 175 163 172 167 171 166 161 176 181 182 177 165 169 180 197
323 316 314 306 300 299 296 296 299 303 252 249 249 258 260 264 276 235 210 213 165 155 159 175 167 169 171 174 170 170 165 166 160 160 174 175 169 196 165 165 183 184 174
333 341 343 333 329 327 321 313 302 303 291 296 246 239 287 294 277 221 172 142 157 194 169 171 172 169 166 166 167 156 157 151 152 163 174 187 174 182 167 175 173 167 182
331 349 345 339 335 332 329 338 327 317 310 300 304 280 319 338 277 188 169 185 178 187 159 164 166 165 161 157 154 143 151 143 150 180 206 193 172 163 171 173 168 177 182
340 353 349 349 347 347 345 339 336 326 318 310 306 310 305 289 284 177 210 187 186 181 156 160 160 158 158 155 153 149 147 149 159 201 224 189 157 173 169 175 169 178 170
345 340 337 345 349 346 347 343 339 335 336 334 312 320 307 291 10 229 244 145 165 152 147 144 147 151 153 154 147 147 145 153 179 201 220 170 163 175 164 174 176 165 167
351 349 344 345 356 351 347 347 345 342 342 336 344 326 315 327 312 36 102 101 95 106 121 133 139 146 152 153 148 146 148 165 188 208 188 180 165 174 162 172 177 183 171
355 359 349 344 358 348 359 1 356 351 353 358 2 7 4 10 38 54 82 101 101 103 113 124 126 130 136 134 141 146 156 171 191 206 188 177 165 171 175 171 174 182 182
8 1 358 356 356 355 359 0 3 3 358 12 12 8 18 30 40 71 84 106 116 119 123 130 134 136 131 134 147 163 186 165 194 195 195 166 164 173 187 177 185 173 162
17 24 11 1 358 357 358 360 3 11 11 15 18 17 22 20 31 56 96 104 119 129 130 131 131 136 137 150 168 183 198 153 178 212 193 169 176 177 182 172 168 170 163
36 11 23 10 5 0 3 2 358 11 25 17 26 25 19 23 39 29 53 84 89 100 119 98 140 151 161 177 191 160 141 139 151 182 184 181 169 160 172 177 165 161 167